Time,TemperatureF,DewpointF,PressureIn,WindDirection,WindDirectionDegrees,WindSpeedMPH,WindSpeedGustMPH,Humidity,HourlyPrecipIn,Conditions,Clouds,dailyrainin,SolarRadiationWatts/m^2,SoftwareType,DateUTC
2013-01-01 00:01:00,32.8,30.2,30.07,SW,227,0.0,0.0,90,0.00,,,0.00,0,Wunderground v.1.15,2013-01-01 05:01:00,
2013-01-01 00:06:00,32.8,30.2,30.08,SW,228,0.0,1.0,90,0.00,,,0.00,0,Wunderground v.1.15,2013-01-01 05:06:00,
2013-01-01 00:07:00,32.8,30.2,30.07,SW,228,1.0,1.0,90,0.00,,,0.00,0,Wunderground v.1.15,2013-01-01 05:07:00,
2013-01-01 00:13:00,32.8,30.2,30.07,SW,228,0.0,3.0,90,0.00,,,0.00,0,Wunderground v.1.15,2013-01-01 05:13:00,
2013-01-01 00:19:00,32.8,30.2,30.06,SW,229,1.0,3.0,90,0.00,,,0.00,0,Wunderground v.1.15,2013-01-01 05:19:00,
2013-01-01 00:24:00,32.8,30.2,30.06,SW,229,0.0,1.0,90,0.00,,,0.00,0,Wunderground v.1.15,2013-01-01 05:24:00,
2013-01-01 00:30:00,32.8,30.2,30.06,SW,229,0.0,0.0,90,0.00,,,0.00,0,Wunderground v.1.15,2013-01-01 05:30:00,
2013-01-01 00:35:00,32.8,30.2,30.07,SW,229,0.0,1.0,90,0.00,,,0.00,0,Wunderground v.1.15,2013-01-01 05:35:00,
2013-01-01 00:41:00,32.8,30.2,30.07,SW,228,0.0,0.0,90,0.00,,,0.00,0,Wunderground v.1.15,2013-01-01 05:41:00,
2013-01-01 00:47:00,32.8,30.2,30.07,SW,230,0.0,0.0,90,0.00,,,0.00,0,Wunderground v.1.15,2013-01-01 05:47:00,
2013-01-01 00:53:00,32.8,30.2,30.06,SW,230,0.0,1.0,90,0.00,,,0.00,0,Wunderground v.1.15,2013-01-01 05:53:00,
2013-01-01 00:59:00,32.8,30.2,30.06,SW,230,0.0,1.0,90,0.00,,,0.00,0,Wunderground v.1.15,2013-01-01 05:59:00,
2013-01-01 01:05:00,32.8,30.2,30.06,SW,230,0.0,1.0,90,0.00,,,0.00,0,Wunderground v.1.15,2013-01-01 06:05:00,
2013-01-01 01:11:00,32.7,30.1,30.06,West,277,0.0,0.0,90,0.00,,,0.00,0,Wunderground v.1.15,2013-01-01 06:11:00,
2013-01-01 01:16:00,32.7,30.4,30.06,SW,215,1.0,2.0,91,0.00,,,0.00,0,Wunderground v.1.15,2013-01-01 06:16:00,
2013-01-01 01:22:00,32.7,30.4,30.06,SW,232,1.0,1.0,91,0.00,,,0.00,0,Wunderground v.1.15,2013-01-01 06:22:00,
2013-01-01 01:27:00,32.6,30.3,30.07,SW,222,0.0,2.0,91,0.00,,,0.00,0,Wunderground v.1.15,2013-01-01 06:27:00,
2013-01-01 01:33:00,32.7,30.4,30.07,SW,222,1.0,1.0,91,0.00,,,0.00,0,Wunderground v.1.15,2013-01-01 06:33:00,
2013-01-01 01:38:00,32.7,30.4,30.07,SW,221,0.0,1.0,91,0.00,,,0.00,0,Wunderground v.1.15,2013-01-01 06:38:00,
2013-01-01 01:44:00,32.6,30.3,30.07,SW,222,0.0,0.0,91,0.00,,,0.00,0,Wunderground v.1.15,2013-01-01 06:44:00,
2013-01-01 01:49:00,32.6,30.3,30.07,SW,222,0.0,0.0,91,0.00,,,0.00,0,Wunderground v.1.15,2013-01-01 06:49:00,
2013-01-01 01:55:00,32.5,30.2,30.06,SW,221,0.0,0.0,91,0.00,,,0.00,0,Wunderground v.1.15,2013-01-01 06:55:00,
2013-01-01 02:01:00,32.5,30.2,30.06,SW,222,0.0,0.0,91,0.00,,,0.00,0,Wunderground v.1.15,2013-01-01 07:01:00,
2013-01-01 02:06:00,32.4,30.3,30.06,SW,222,0.0,0.0,92,0.00,,,0.00,0,Wunderground v.1.15,2013-01-01 07:06:00,
2013-01-01 02:12:00,32.4,30.3,30.06,SW,222,0.0,0.0,92,0.00,,,0.00,0,Wunderground v.1.15,2013-01-01 07:12:00,
2013-01-01 02:17:00,32.4,30.3,30.05,SW,221,0.0,0.0,92,0.00,,,0.00,0,Wunderground v.1.15,2013-01-01 07:17:00,
2013-01-01 02:23:00,32.3,30.2,30.06,SW,222,0.0,0.0,92,0.00,,,0.00,0,Wunderground v.1.15,2013-01-01 07:23:00,
2013-01-01 02:28:00,32.3,30.2,30.06,SW,222,0.0,0.0,92,0.00,,,0.00,0,Wunderground v.1.15,2013-01-01 07:28:00,
2013-01-01 02:34:00,32.3,30.2,30.05,SW,222,0.0,0.0,92,0.00,,,0.00,0,Wunderground v.1.15,2013-01-01 07:34:00,
2013-01-01 02:39:00,32.3,30.2,30.06,SW,222,0.0,0.0,92,0.00,,,0.00,0,Wunderground v.1.15,2013-01-01 07:39:00,
2013-01-01 02:45:00,32.3,30.2,30.06,SW,222,0.0,0.0,92,0.00,,,0.00,0,Wunderground v.1.15,2013-01-01 07:45:00,
2013-01-01 02:50:00,32.3,30.2,30.06,SW,221,0.0,0.0,92,0.00,,,0.00,0,Wunderground v.1.15,2013-01-01 07:50:00,
2013-01-01 02:56:00,32.3,30.2,30.06,SW,222,0.0,1.0,92,0.00,,,0.00,0,Wunderground v.1.15,2013-01-01 07:56:00,
2013-01-01 03:02:00,32.3,30.2,30.05,SW,222,0.0,0.0,92,0.00,,,0.00,0,Wunderground v.1.15,2013-01-01 08:02:00,
2013-01-01 03:08:00,32.3,30.2,30.05,SW,222,0.0,0.0,92,0.00,,,0.00,0,Wunderground v.1.15,2013-01-01 08:08:00,
2013-01-01 03:13:00,32.3,30.5,30.05,SW,222,0.0,0.0,93,0.00,,,0.00,0,Wunderground v.1.15,2013-01-01 08:13:00,
2013-01-01 03:19:00,32.3,30.5,30.05,SW,222,0.0,1.0,93,0.00,,,0.00,0,Wunderground v.1.15,2013-01-01 08:19:00,
2013-01-01 03:24:00,32.3,30.5,30.05,SW,221,0.0,0.0,93,0.00,,,0.00,0,Wunderground v.1.15,2013-01-01 08:24:00,
2013-01-01 03:30:00,32.3,30.5,30.05,SW,221,0.0,0.0,93,0.00,,,0.00,0,Wunderground v.1.15,2013-01-01 08:30:00,
2013-01-01 03:36:00,32.3,30.5,30.05,SW,222,0.0,0.0,93,0.00,,,0.00,0,Wunderground v.1.15,2013-01-01 08:36:00,
2013-01-01 03:41:00,32.3,30.5,30.05,SW,222,0.0,0.0,93,0.00,,,0.00,0,Wunderground v.1.15,2013-01-01 08:41:00,
2013-01-01 03:47:00,32.3,30.5,30.05,SW,222,0.0,0.0,93,0.00,,,0.00,0,Wunderground v.1.15,2013-01-01 08:47:00,
2013-01-01 03:52:00,32.3,30.5,30.05,SW,221,0.0,0.0,93,0.00,,,0.00,0,Wunderground v.1.15,2013-01-01 08:52:00,
2013-01-01 03:58:00,32.3,30.8,30.05,SW,222,0.0,1.0,94,0.00,,,0.00,0,Wunderground v.1.15,2013-01-01 08:58:00,
2013-01-01 04:03:00,32.3,30.8,30.05,SW,222,0.0,0.0,94,0.00,,,0.00,0,Wunderground v.1.15,2013-01-01 09:03:00,
2013-01-01 04:09:00,32.3,30.8,30.05,SW,222,0.0,0.0,94,0.00,,,0.00,0,Wunderground v.1.15,2013-01-01 09:09:00,
2013-01-01 04:14:00,32.3,30.8,30.05,SW,222,0.0,0.0,94,0.00,,,0.00,0,Wunderground v.1.15,2013-01-01 09:14:00,
2013-01-01 04:20:00,32.3,30.8,30.05,NW,305,0.0,0.0,94,0.00,,,0.00,0,Wunderground v.1.15,2013-01-01 09:20:00,
2013-01-01 04:25:00,32.2,30.7,30.05,NW,305,0.0,0.0,94,0.00,,,0.00,0,Wunderground v.1.15,2013-01-01 09:25:00,
2013-01-01 04:31:00,32.3,30.8,30.04,NW,305,0.0,0.0,94,0.00,,,0.00,0,Wunderground v.1.15,2013-01-01 09:31:00,
2013-01-01 04:53:00,32.3,30.8,30.04,NW,305,0.0,0.0,94,0.00,,,0.00,0,Wunderground v.1.15,2013-01-01 09:53:00,
2013-01-01 04:58:00,32.3,30.8,30.04,NW,305,0.0,2.0,94,0.00,,,0.00,0,Wunderground v.1.15,2013-01-01 09:58:00,
2013-01-01 05:04:00,32.3,30.8,30.04,WNW,298,0.0,1.0,94,0.00,,,0.00,0,Wunderground v.1.15,2013-01-01 10:04:00,
2013-01-01 05:10:00,32.3,30.8,30.03,West,272,0.0,0.0,94,0.00,,,0.00,0,Wunderground v.1.15,2013-01-01 10:10:00,
2013-01-01 05:15:00,32.3,30.8,30.03,West,272,0.0,0.0,94,0.00,,,0.00,0,Wunderground v.1.15,2013-01-01 10:15:00,
2013-01-01 05:21:00,32.3,31.0,30.03,West,272,0.0,1.0,95,0.00,,,0.00,0,Wunderground v.1.15,2013-01-01 10:21:00,
2013-01-01 05:27:00,32.3,31.0,30.03,West,272,0.0,1.0,95,0.00,,,0.00,0,Wunderground v.1.15,2013-01-01 10:27:00,
2013-01-01 05:33:00,32.3,31.0,30.03,West,272,0.0,1.0,95,0.00,,,0.00,0,Wunderground v.1.15,2013-01-01 10:33:00,
2013-01-01 05:38:00,32.3,31.0,30.03,West,265,0.0,1.0,95,0.00,,,0.00,0,Wunderground v.1.15,2013-01-01 10:38:00,
2013-01-01 05:44:00,32.3,31.0,30.03,West,265,0.0,0.0,95,0.00,,,0.00,0,Wunderground v.1.15,2013-01-01 10:44:00,
2013-01-01 05:50:00,32.3,31.0,30.03,West,265,0.0,0.0,95,0.00,,,0.00,0,Wunderground v.1.15,2013-01-01 10:50:00,
2013-01-01 05:56:00,32.3,31.0,30.04,West,265,0.0,0.0,95,0.00,,,0.00,0,Wunderground v.1.15,2013-01-01 10:56:00,
2013-01-01 06:02:00,32.3,31.0,30.04,WSW,255,0.0,0.0,95,0.00,,,0.00,0,Wunderground v.1.15,2013-01-01 11:02:00,
2013-01-01 06:07:00,32.3,31.0,30.04,WSW,255,0.0,1.0,95,0.00,,,0.00,0,Wunderground v.1.15,2013-01-01 11:07:00,
2013-01-01 06:12:00,32.4,31.1,30.04,WSW,255,0.0,0.0,95,0.00,,,0.00,0,Wunderground v.1.15,2013-01-01 11:12:00,
2013-01-01 06:18:00,32.4,31.1,30.04,WSW,255,0.0,0.0,95,0.00,,,0.00,0,Wunderground v.1.15,2013-01-01 11:18:00,
2013-01-01 06:23:00,32.4,31.1,30.04,WSW,255,0.0,0.0,95,0.00,,,0.00,0,Wunderground v.1.15,2013-01-01 11:23:00,
2013-01-01 06:28:00,32.3,31.0,30.03,WSW,255,0.0,0.0,95,0.00,,,0.00,0,Wunderground v.1.15,2013-01-01 11:28:00,
2013-01-01 06:34:00,32.3,31.0,30.03,WSW,255,0.0,0.0,95,0.00,,,0.00,0,Wunderground v.1.15,2013-01-01 11:34:00,
2013-01-01 06:40:00,32.3,31.0,30.02,WSW,255,0.0,0.0,95,0.00,,,0.00,0,Wunderground v.1.15,2013-01-01 11:40:00,
2013-01-01 06:46:00,32.3,31.0,30.02,WSW,255,0.0,1.0,95,0.00,,,0.00,0,Wunderground v.1.15,2013-01-01 11:46:00,
2013-01-01 06:51:00,32.3,31.0,30.03,WSW,255,0.0,0.0,95,0.00,,,0.00,0,Wunderground v.1.15,2013-01-01 11:51:00,
2013-01-01 06:56:00,32.3,31.0,30.04,WSW,255,0.0,0.0,95,0.00,,,0.00,0,Wunderground v.1.15,2013-01-01 11:56:00,
2013-01-01 07:02:00,32.3,31.0,30.03,WSW,255,0.0,1.0,95,0.00,,,0.00,0,Wunderground v.1.15,2013-01-01 12:02:00,
2013-01-01 07:07:00,32.3,31.0,30.02,WSW,255,0.0,1.0,95,0.00,,,0.00,0,Wunderground v.1.15,2013-01-01 12:07:00,
2013-01-01 07:13:00,32.2,30.9,30.03,WSW,251,0.0,2.0,95,0.00,,,0.00,0,Wunderground v.1.15,2013-01-01 12:13:00,
2013-01-01 07:18:00,32.2,30.9,30.03,WSW,251,0.0,2.0,95,0.00,,,0.00,0,Wunderground v.1.15,2013-01-01 12:18:00,
2013-01-01 07:24:00,32.2,30.9,30.03,WSW,251,0.0,0.0,95,0.00,,,0.00,0,Wunderground v.1.15,2013-01-01 12:24:00,
2013-01-01 07:30:00,32.1,30.8,30.03,WSW,251,0.0,0.0,95,0.00,,,0.00,0,Wunderground v.1.15,2013-01-01 12:30:00,
2013-01-01 07:36:00,32.2,30.9,30.03,WSW,251,0.0,0.0,95,0.00,,,0.00,0,Wunderground v.1.15,2013-01-01 12:36:00,
2013-01-01 07:41:00,32.1,30.8,30.04,WSW,251,0.0,0.0,95,0.00,,,0.00,0,Wunderground v.1.15,2013-01-01 12:41:00,
2013-01-01 07:47:00,32.1,30.8,30.04,WSW,251,0.0,0.0,95,0.00,,,0.00,0,Wunderground v.1.15,2013-01-01 12:47:00,
2013-01-01 07:52:00,32.1,30.8,30.03,WSW,251,0.0,0.0,95,0.00,,,0.00,0,Wunderground v.1.15,2013-01-01 12:52:00,
2013-01-01 07:58:00,32.1,30.8,30.03,WSW,251,0.0,0.0,95,0.00,,,0.00,0,Wunderground v.1.15,2013-01-01 12:58:00,
2013-01-01 08:04:00,32.1,30.8,30.04,WSW,251,0.0,0.0,95,0.00,,,0.00,0,Wunderground v.1.15,2013-01-01 13:04:00,
2013-01-01 08:09:00,32.1,30.8,30.04,WSW,251,0.0,0.0,95,0.00,,,0.00,0,Wunderground v.1.15,2013-01-01 13:09:00,
2013-01-01 08:15:00,32.1,30.8,30.04,WSW,251,0.0,0.0,95,0.00,,,0.00,0,Wunderground v.1.15,2013-01-01 13:15:00,
2013-01-01 08:20:00,32.2,30.9,30.03,WSW,251,0.0,0.0,95,0.00,,,0.00,5,Wunderground v.1.15,2013-01-01 13:20:00,
2013-01-01 08:25:00,32.2,30.9,30.04,WSW,251,0.0,0.0,95,0.00,,,0.00,7,Wunderground v.1.15,2013-01-01 13:25:00,
2013-01-01 08:31:00,32.2,30.9,30.03,WSW,251,0.0,1.0,95,0.00,,,0.00,7,Wunderground v.1.15,2013-01-01 13:31:00,
2013-01-01 08:37:00,32.3,31.0,30.04,WSW,251,0.0,1.0,95,0.00,,,0.00,5,Wunderground v.1.15,2013-01-01 13:37:00,
2013-01-01 08:43:00,32.3,31.0,30.04,WSW,251,0.0,0.0,95,0.00,,,0.00,9,Wunderground v.1.15,2013-01-01 13:43:00,
2013-01-01 08:49:00,32.3,31.0,30.05,WSW,251,0.0,0.0,95,0.00,,,0.00,9,Wunderground v.1.15,2013-01-01 13:49:00,
2013-01-01 08:54:00,32.3,31.0,30.05,WSW,251,0.0,0.0,95,0.00,,,0.00,12,Wunderground v.1.15,2013-01-01 13:54:00,
2013-01-01 09:00:00,32.3,31.0,30.05,SW,233,0.0,1.0,95,0.00,,,0.00,11,Wunderground v.1.15,2013-01-01 14:00:00,
2013-01-01 09:06:00,32.4,31.1,30.04,SW,233,0.0,1.0,95,0.00,,,0.00,18,Wunderground v.1.15,2013-01-01 14:06:00,
2013-01-01 09:11:00,32.4,31.1,30.05,SW,233,0.0,0.0,95,0.00,,,0.00,21,Wunderground v.1.15,2013-01-01 14:11:00,
2013-01-01 09:16:00,32.4,31.1,30.05,SW,233,0.0,0.0,95,0.00,,,0.00,18,Wunderground v.1.15,2013-01-01 14:16:00,
2013-01-01 09:21:00,32.5,31.2,30.05,SW,233,0.0,1.0,95,0.00,,,0.00,19,Wunderground v.1.15,2013-01-01 14:21:00,
2013-01-01 09:26:00,32.5,31.2,30.05,SW,233,0.0,1.0,95,0.00,,,0.00,18,Wunderground v.1.15,2013-01-01 14:26:00,
2013-01-01 09:32:00,32.6,31.3,30.05,SW,222,0.0,3.0,95,0.00,,,0.00,16,Wunderground v.1.15,2013-01-01 14:32:00,
2013-01-01 09:38:00,32.6,31.1,30.04,SW,219,0.0,3.0,94,0.00,,,0.00,21,Wunderground v.1.15,2013-01-01 14:38:00,
2013-01-01 09:43:00,32.6,31.1,30.05,SW,219,0.0,1.0,94,0.00,,,0.00,26,Wunderground v.1.15,2013-01-01 14:43:00,
2013-01-01 09:49:00,32.7,31.2,30.04,SW,219,0.0,1.0,94,0.00,,,0.00,30,Wunderground v.1.15,2013-01-01 14:49:00,
2013-01-01 09:55:00,32.8,31.3,30.05,SW,218,0.0,1.0,94,0.00,,,0.00,28,Wunderground v.1.15,2013-01-01 14:55:00,
2013-01-01 10:00:00,32.8,31.3,30.05,SW,218,0.0,0.0,94,0.00,,,0.00,30,Wunderground v.1.15,2013-01-01 15:00:00,
2013-01-01 10:06:00,32.9,31.4,30.04,SW,218,0.0,0.0,94,0.00,,,0.00,35,Wunderground v.1.15,2013-01-01 15:06:00,
2013-01-01 10:11:00,32.9,31.4,30.04,SW,218,0.0,0.0,94,0.00,,,0.00,35,Wunderground v.1.15,2013-01-01 15:11:00,
2013-01-01 10:16:00,33.0,31.5,30.05,SW,218,0.0,0.0,94,0.00,,,0.00,37,Wunderground v.1.15,2013-01-01 15:16:00,
2013-01-01 10:21:00,33.0,31.5,30.06,SW,218,0.0,0.0,94,0.00,,,0.00,32,Wunderground v.1.15,2013-01-01 15:21:00,
2013-01-01 10:27:00,33.1,31.3,30.05,SW,218,0.0,0.0,93,0.00,,,0.00,44,Wunderground v.1.15,2013-01-01 15:27:00,
2013-01-01 10:32:00,33.2,31.4,30.05,NNW,329,0.0,0.0,93,0.00,,,0.00,39,Wunderground v.1.15,2013-01-01 15:32:00,
2013-01-01 10:38:00,33.3,31.5,30.06,NW,317,0.0,1.0,93,0.00,,,0.00,35,Wunderground v.1.15,2013-01-01 15:38:00,
2013-01-01 10:44:00,33.3,31.5,30.07,NW,317,0.0,0.0,93,0.00,,,0.00,35,Wunderground v.1.15,2013-01-01 15:44:00,
2013-01-01 10:49:00,33.4,31.6,30.07,NW,317,0.0,0.0,93,0.00,,,0.00,32,Wunderground v.1.15,2013-01-01 15:49:00,
2013-01-01 10:54:00,33.5,31.7,30.06,WNW,290,0.0,0.0,93,0.00,,,0.00,42,Wunderground v.1.15,2013-01-01 15:54:00,
2013-01-01 11:00:00,33.5,31.4,30.07,WNW,286,0.0,0.0,92,0.00,,,0.00,30,Wunderground v.1.15,2013-01-01 16:00:00,
2013-01-01 11:06:00,33.5,31.4,30.06,WNW,294,0.0,1.0,92,0.00,,,0.00,26,Wunderground v.1.15,2013-01-01 16:06:00,
2013-01-01 11:11:00,33.5,31.4,30.06,West,260,0.0,0.0,92,0.00,,,0.00,26,Wunderground v.1.15,2013-01-01 16:11:00,
2013-01-01 11:17:00,33.5,31.4,30.06,West,260,0.0,0.0,92,0.00,,,0.00,28,Wunderground v.1.15,2013-01-01 16:17:00,
2013-01-01 11:22:00,33.6,31.5,30.05,WSW,258,0.0,0.0,92,0.00,,,0.00,26,Wunderground v.1.15,2013-01-01 16:22:00,
2013-01-01 11:28:00,33.6,31.5,30.06,WSW,258,0.0,0.0,92,0.00,,,0.00,25,Wunderground v.1.15,2013-01-01 16:28:00,
2013-01-01 11:33:00,33.5,31.4,30.05,WNW,296,0.0,1.0,92,0.00,,,0.00,23,Wunderground v.1.15,2013-01-01 16:33:00,
2013-01-01 11:39:00,33.5,31.4,30.04,WNW,296,0.0,1.0,92,0.00,,,0.00,26,Wunderground v.1.15,2013-01-01 16:39:00,
2013-01-01 11:44:00,33.5,31.2,30.04,NW,314,1.0,4.0,91,0.00,,,0.00,26,Wunderground v.1.15,2013-01-01 16:44:00,
2013-01-01 11:50:00,33.4,31.1,30.04,NW,322,1.0,1.0,91,0.00,,,0.00,28,Wunderground v.1.15,2013-01-01 16:50:00,
2013-01-01 11:55:00,33.4,31.1,30.02,NW,305,1.0,4.0,91,0.00,,,0.00,32,Wunderground v.1.15,2013-01-01 16:55:00,
2013-01-01 12:00:00,33.4,31.1,30.01,NNW,340,1.0,1.0,91,0.00,,,0.00,35,Wunderground v.1.15,2013-01-01 17:00:00,
2013-01-01 12:06:00,33.3,31.0,30.01,WNW,295,1.0,4.0,91,0.00,,,0.00,42,Wunderground v.1.15,2013-01-01 17:06:00,
2013-01-01 12:11:00,33.3,31.0,30.00,WNW,298,0.0,0.0,91,0.00,,,0.00,46,Wunderground v.1.15,2013-01-01 17:11:00,
2013-01-01 12:16:00,33.3,31.0,30.01,WNW,298,0.0,0.0,91,0.00,,,0.00,49,Wunderground v.1.15,2013-01-01 17:16:00,
2013-01-01 12:21:00,33.3,31.0,30.00,WNW,298,0.0,0.0,91,0.00,,,0.00,53,Wunderground v.1.15,2013-01-01 17:21:00,
2013-01-01 12:27:00,33.4,31.1,30.01,WNW,298,0.0,0.0,91,0.00,,,0.00,63,Wunderground v.1.15,2013-01-01 17:27:00,
2013-01-01 12:33:00,33.4,30.8,30.00,WNW,290,0.0,0.0,90,0.00,,,0.00,70,Wunderground v.1.15,2013-01-01 17:33:00,
2013-01-01 12:38:00,33.5,30.9,30.01,WNW,290,0.0,2.0,90,0.00,,,0.00,74,Wunderground v.1.15,2013-01-01 17:38:00,
2013-01-01 12:43:00,33.5,30.6,30.01,NW,316,1.0,5.0,89,0.00,,,0.00,62,Wunderground v.1.15,2013-01-01 17:43:00,
2013-01-01 12:49:00,33.5,30.6,30.01,WNW,282,1.0,5.0,89,0.00,,,0.00,62,Wunderground v.1.15,2013-01-01 17:49:00,
2013-01-01 12:54:00,33.5,30.6,30.01,WNW,302,1.0,2.0,89,0.00,,,0.00,65,Wunderground v.1.15,2013-01-01 17:54:00,
2013-01-01 12:59:00,33.5,30.6,30.00,NW,308,0.0,2.0,89,0.00,,,0.00,69,Wunderground v.1.15,2013-01-01 17:59:00,
2013-01-01 13:05:00,33.7,30.8,30.01,SW,219,0.0,1.0,89,0.00,,,0.00,65,Wunderground v.1.15,2013-01-01 18:05:00,
2013-01-01 13:10:00,33.7,30.8,30.00,WNW,297,1.0,2.0,89,0.00,,,0.00,63,Wunderground v.1.15,2013-01-01 18:10:00,
2013-01-01 13:16:00,33.7,30.8,30.00,West,273,0.0,2.0,89,0.00,,,0.00,62,Wunderground v.1.15,2013-01-01 18:16:00,
2013-01-01 13:21:00,33.7,30.8,30.01,WNW,300,0.0,0.0,89,0.00,,,0.00,51,Wunderground v.1.15,2013-01-01 18:21:00,
2013-01-01 13:27:00,33.7,30.8,30.01,NW,320,0.0,2.0,89,0.00,,,0.00,42,Wunderground v.1.15,2013-01-01 18:27:00,
2013-01-01 13:33:00,33.7,30.8,30.00,NW,309,1.0,6.0,89,0.00,,,0.00,65,Wunderground v.1.15,2013-01-01 18:33:00,
2013-01-01 13:38:00,33.7,30.8,30.00,NNW,330,2.0,6.0,89,0.00,,,0.00,98,Wunderground v.1.15,2013-01-01 18:38:00,
2013-01-01 13:44:00,33.6,30.7,30.00,North,355,2.0,5.0,89,0.00,,,0.00,84,Wunderground v.1.15,2013-01-01 18:44:00,
2013-01-01 13:50:00,33.5,30.6,30.00,NNW,329,2.0,5.0,89,0.00,,,0.00,63,Wunderground v.1.15,2013-01-01 18:50:00,
2013-01-01 13:55:00,33.3,30.4,30.00,NW,321,3.0,5.0,89,0.00,,,0.00,44,Wunderground v.1.15,2013-01-01 18:55:00,
2013-01-01 14:00:00,33.1,30.2,30.00,NNW,331,4.0,4.0,89,0.00,,,0.00,51,Wunderground v.1.15,2013-01-01 19:00:00,
2013-01-01 14:06:00,32.9,30.0,30.00,NNW,328,4.0,7.0,89,0.00,,,0.00,46,Wunderground v.1.15,2013-01-01 19:06:00,
2013-01-01 14:12:00,32.8,29.9,30.00,NW,325,4.0,6.0,89,0.00,,,0.00,79,Wunderground v.1.15,2013-01-01 19:12:00,
2013-01-01 14:17:00,32.7,29.8,30.00,WNW,303,4.0,6.0,89,0.00,,,0.00,60,Wunderground v.1.15,2013-01-01 19:17:00,
2013-01-01 14:23:00,32.7,29.8,30.00,NNW,328,4.0,6.0,89,0.00,,,0.00,60,Wunderground v.1.15,2013-01-01 19:23:00,
2013-01-01 14:29:00,32.6,29.7,30.00,NW,315,4.0,10.0,89,0.00,,,0.00,49,Wunderground v.1.15,2013-01-01 19:29:00,
2013-01-01 14:34:00,32.6,29.4,30.01,NW,310,4.0,4.0,88,0.00,,,0.00,49,Wunderground v.1.15,2013-01-01 19:34:00,
2013-01-01 14:40:00,32.6,29.4,30.02,NW,317,4.0,4.0,88,0.00,,,0.00,70,Wunderground v.1.15,2013-01-01 19:40:00,
2013-01-01 14:46:00,32.6,29.4,30.01,NW,304,3.0,7.0,88,0.00,,,0.00,69,Wunderground v.1.15,2013-01-01 19:46:00,
2013-01-01 14:51:00,32.5,29.3,29.99,NW,317,2.0,3.0,88,0.00,,,0.00,51,Wunderground v.1.15,2013-01-01 19:51:00,
2013-01-01 14:57:00,32.5,29.3,30.00,NNW,327,3.0,9.0,88,0.00,,,0.00,39,Wunderground v.1.15,2013-01-01 19:57:00,
2013-01-01 15:03:00,32.3,29.1,30.00,North,350,2.0,3.0,88,0.00,,,0.00,44,Wunderground v.1.15,2013-01-01 20:03:00,
2013-01-01 15:08:00,32.3,29.1,30.01,NW,307,1.0,6.0,88,0.00,,,0.00,51,Wunderground v.1.15,2013-01-01 20:08:00,
2013-01-01 15:13:00,32.1,28.9,30.02,NNW,348,3.0,5.0,88,0.00,,,0.00,56,Wunderground v.1.15,2013-01-01 20:13:00,
2013-01-01 15:18:00,32.1,29.2,30.02,NNW,346,3.0,5.0,89,0.00,,,0.00,60,Wunderground v.1.15,2013-01-01 20:18:00,
2013-01-01 15:24:00,32.2,29.3,30.01,North,355,1.0,2.0,89,0.00,,,0.00,60,Wunderground v.1.15,2013-01-01 20:24:00,
2013-01-01 15:30:00,32.3,29.1,30.01,WNW,302,1.0,1.0,88,0.00,,,0.00,63,Wunderground v.1.15,2013-01-01 20:30:00,
2013-01-01 15:36:00,32.2,29.0,30.02,NW,305,1.0,5.0,88,0.00,,,0.00,42,Wunderground v.1.15,2013-01-01 20:36:00,
2013-01-01 15:42:00,32.0,28.8,30.02,NNW,327,2.0,3.0,88,0.00,,,0.00,33,Wunderground v.1.15,2013-01-01 20:42:00,
2013-01-01 15:47:00,31.9,28.8,30.01,North,350,3.0,6.0,88,0.00,,,0.00,33,Wunderground v.1.15,2013-01-01 20:47:00,
2013-01-01 15:53:00,31.8,28.7,30.02,NNW,341,3.0,4.0,88,0.00,,,0.00,35,Wunderground v.1.15,2013-01-01 20:53:00,
2013-01-01 15:58:00,31.8,28.7,30.03,NNW,339,2.0,4.0,88,0.00,,,0.00,35,Wunderground v.1.15,2013-01-01 20:58:00,
2013-01-01 16:04:00,31.7,28.6,30.03,NW,325,1.0,2.0,88,0.00,,,0.00,33,Wunderground v.1.15,2013-01-01 21:04:00,
2013-01-01 16:09:00,31.7,28.6,30.04,NNW,333,1.0,6.0,88,0.00,,,0.00,32,Wunderground v.1.15,2013-01-01 21:09:00,
2013-01-01 16:14:00,31.6,28.5,30.04,NW,313,2.0,4.0,88,0.00,,,0.00,28,Wunderground v.1.15,2013-01-01 21:14:00,
2013-01-01 16:20:00,31.6,28.5,30.05,West,276,1.0,1.0,88,0.00,,,0.00,23,Wunderground v.1.15,2013-01-01 21:20:00,
2013-01-01 16:25:00,31.6,28.5,30.05,West,277,0.0,1.0,88,0.00,,,0.00,16,Wunderground v.1.15,2013-01-01 21:25:00,
2013-01-01 16:31:00,31.5,28.4,30.05,NNW,329,1.0,4.0,88,0.00,,,0.00,9,Wunderground v.1.15,2013-01-01 21:31:00,
2013-01-01 16:37:00,31.4,28.0,30.05,NNW,344,2.0,7.0,87,0.00,,,0.00,0,Wunderground v.1.15,2013-01-01 21:37:00,
2013-01-01 16:43:00,31.2,27.8,30.05,North,355,6.0,6.0,87,0.00,,,0.00,0,Wunderground v.1.15,2013-01-01 21:43:00,
2013-01-01 16:49:00,30.9,27.5,30.06,NNW,332,5.0,6.0,87,0.00,,,0.00,0,Wunderground v.1.15,2013-01-01 21:49:00,
2013-01-01 16:55:00,30.7,27.3,30.05,North,355,4.0,6.0,87,0.00,,,0.00,0,Wunderground v.1.15,2013-01-01 21:55:00,
2013-01-01 17:01:00,30.6,27.2,30.06,North,5,3.0,3.0,87,0.00,,,0.00,0,Wunderground v.1.15,2013-01-01 22:01:00,
2013-01-01 17:06:00,30.5,27.4,30.05,NNW,342,2.0,3.0,88,0.00,,,0.00,0,Wunderground v.1.15,2013-01-01 22:06:00,
2013-01-01 17:11:00,30.3,27.2,30.06,NW,312,1.0,3.0,88,0.00,,,0.00,0,Wunderground v.1.15,2013-01-01 22:11:00,
2013-01-01 17:17:00,30.3,27.2,30.06,NNW,330,2.0,5.0,88,0.00,,,0.00,0,Wunderground v.1.15,2013-01-01 22:17:00,
2013-01-01 17:22:00,30.2,27.1,30.06,North,5,2.0,5.0,88,0.00,,,0.00,0,Wunderground v.1.15,2013-01-01 22:22:00,
2013-01-01 17:28:00,30.2,27.1,30.06,North,355,2.0,5.0,88,0.00,,,0.00,0,Wunderground v.1.15,2013-01-01 22:28:00,
2013-01-01 17:34:00,30.1,27.0,30.06,NNW,337,2.0,6.0,88,0.00,,,0.00,0,Wunderground v.1.15,2013-01-01 22:34:00,
2013-01-01 17:39:00,30.0,26.9,30.06,NNW,344,2.0,6.0,88,0.00,,,0.00,0,Wunderground v.1.15,2013-01-01 22:39:00,
2013-01-01 17:45:00,30.0,26.9,30.06,North,355,3.0,5.0,88,0.00,,,0.00,0,Wunderground v.1.15,2013-01-01 22:45:00,
2013-01-01 17:51:00,29.9,26.5,30.06,NNW,348,4.0,6.0,87,0.00,,,0.00,0,Wunderground v.1.15,2013-01-01 22:51:00,
2013-01-01 17:56:00,29.8,26.4,30.06,North,355,4.0,6.0,87,0.00,,,0.00,0,Wunderground v.1.15,2013-01-01 22:56:00,
2013-01-01 18:02:00,29.7,26.3,30.06,NNW,344,2.0,8.0,87,0.00,,,0.00,0,Wunderground v.1.15,2013-01-01 23:02:00,
2013-01-01 18:07:00,29.6,25.9,30.06,NNW,342,3.0,8.0,86,0.00,,,0.00,0,Wunderground v.1.15,2013-01-01 23:07:00,
2013-01-01 18:13:00,29.5,25.8,30.06,NW,326,3.0,6.0,86,0.00,,,0.00,0,Wunderground v.1.15,2013-01-01 23:13:00,
2013-01-01 18:19:00,29.4,25.7,30.06,NNE,16,3.0,6.0,86,0.00,,,0.00,0,Wunderground v.1.15,2013-01-01 23:19:00,
2013-01-01 18:24:00,29.3,25.9,30.06,North,5,2.0,3.0,87,0.00,,,0.00,0,Wunderground v.1.15,2013-01-01 23:24:00,
2013-01-01 18:30:00,29.3,25.9,30.06,NNW,336,1.0,1.0,87,0.00,,,0.00,0,Wunderground v.1.15,2013-01-01 23:30:00,
2013-01-01 18:36:00,29.1,25.4,30.06,NNW,341,1.0,6.0,86,0.00,,,0.00,0,Wunderground v.1.15,2013-01-01 23:36:00,
2013-01-01 18:41:00,29.0,25.1,30.06,NNW,348,2.0,2.0,85,0.00,,,0.00,0,Wunderground v.1.15,2013-01-01 23:41:00,
2013-01-01 18:47:00,29.0,24.8,30.07,NNE,13,1.0,6.0,84,0.00,,,0.00,0,Wunderground v.1.15,2013-01-01 23:47:00,
2013-01-01 18:53:00,28.9,25.0,30.07,NNW,333,1.0,2.0,85,0.00,,,0.00,0,Wunderground v.1.15,2013-01-01 23:53:00,
2013-01-01 18:59:00,28.8,24.6,30.07,NNW,344,1.0,4.0,84,0.00,,,0.00,0,Wunderground v.1.15,2013-01-01 23:59:00,
2013-01-01 19:04:00,28.7,24.5,30.07,NNW,346,2.0,5.0,84,0.00,,,0.00,0,Wunderground v.1.15,2013-01-02 00:04:00,
2013-01-01 19:10:00,28.7,24.2,30.08,NNW,337,2.0,2.0,83,0.00,,,0.00,0,Wunderground v.1.15,2013-01-02 00:10:00,
2013-01-01 19:15:00,28.6,24.1,30.08,NNW,330,1.0,2.0,83,0.00,,,0.00,0,Wunderground v.1.15,2013-01-02 00:15:00,
2013-01-01 19:21:00,28.5,24.0,30.08,NW,313,0.0,1.0,83,0.00,,,0.00,0,Wunderground v.1.15,2013-01-02 00:21:00,
2013-01-01 19:27:00,28.5,24.0,30.08,WNW,291,1.0,6.0,83,0.00,,,0.00,0,Wunderground v.1.15,2013-01-02 00:27:00,
2013-01-01 19:33:00,28.4,23.6,30.08,NNW,348,2.0,3.0,82,0.00,,,0.00,0,Wunderground v.1.15,2013-01-02 00:33:00,
2013-01-01 19:38:00,28.4,23.6,30.08,NNW,336,1.0,3.0,82,0.00,,,0.00,0,Wunderground v.1.15,2013-01-02 00:38:00,
2013-01-01 19:43:00,28.4,23.6,30.08,North,349,1.0,4.0,82,0.00,,,0.00,0,Wunderground v.1.15,2013-01-02 00:43:00,
2013-01-01 19:48:00,28.4,23.6,30.08,West,275,1.0,4.0,82,0.00,,,0.00,0,Wunderground v.1.15,2013-01-02 00:48:00,
2013-01-01 19:53:00,28.3,23.8,30.08,NNW,338,1.0,1.0,83,0.00,,,0.00,0,Wunderground v.1.15,2013-01-02 00:53:00,
2013-01-01 19:59:00,28.3,23.8,30.08,NW,319,0.0,1.0,83,0.00,,,0.00,0,Wunderground v.1.15,2013-01-02 00:59:00,
2013-01-01 20:05:00,28.2,23.7,30.08,North,355,0.0,2.0,83,0.00,,,0.00,0,Wunderground v.1.15,2013-01-02 01:05:00,
2013-01-01 20:11:00,28.1,23.6,30.08,NNE,24,0.0,4.0,83,0.00,,,0.00,0,Wunderground v.1.15,2013-01-02 01:11:00,
2013-01-01 20:17:00,28.1,23.6,30.08,NNW,348,2.0,6.0,83,0.00,,,0.00,0,Wunderground v.1.15,2013-01-02 01:17:00,
2013-01-01 20:22:00,28.0,23.5,30.08,NNE,15,2.0,2.0,83,0.00,,,0.00,0,Wunderground v.1.15,2013-01-02 01:22:00,
2013-01-01 20:27:00,28.0,23.5,30.07,NW,323,2.0,4.0,83,0.00,,,0.00,0,Wunderground v.1.15,2013-01-02 01:27:00,
2013-01-01 20:32:00,27.9,23.4,30.07,NNW,336,2.0,2.0,83,0.00,,,0.00,0,Wunderground v.1.15,2013-01-02 01:32:00,
2013-01-01 20:38:00,27.8,23.3,30.07,NNW,346,3.0,4.0,83,0.00,,,0.00,0,Wunderground v.1.15,2013-01-02 01:38:00,
2013-01-01 20:43:00,27.7,23.2,30.08,NNW,341,2.0,4.0,83,0.00,,,0.00,0,Wunderground v.1.15,2013-01-02 01:43:00,
2013-01-01 20:49:00,27.5,23.0,30.08,North,11,1.0,4.0,83,0.00,,,0.00,0,Wunderground v.1.15,2013-01-02 01:49:00,
2013-01-01 20:55:00,27.4,22.9,30.08,NNW,348,1.0,3.0,83,0.00,,,0.00,0,Wunderground v.1.15,2013-01-02 01:55:00,
2013-01-01 21:00:00,27.3,22.8,30.08,North,360,2.0,2.0,83,0.00,,,0.00,0,Wunderground v.1.15,2013-01-02 02:00:00,
2013-01-01 21:06:00,27.2,22.7,30.08,North,360,1.0,2.0,83,0.00,,,0.00,0,Wunderground v.1.15,2013-01-02 02:06:00,
2013-01-01 21:11:00,27.2,22.7,30.08,North,360,0.0,0.0,83,0.00,,,0.00,0,Wunderground v.1.15,2013-01-02 02:11:00,
2013-01-01 21:17:00,27.1,22.6,30.08,North,5,1.0,3.0,83,0.00,,,0.00,0,Wunderground v.1.15,2013-01-02 02:17:00,
2013-01-01 21:22:00,27.1,22.6,30.08,North,5,1.0,2.0,83,0.00,,,0.00,0,Wunderground v.1.15,2013-01-02 02:22:00,
2013-01-01 21:28:00,27.0,22.5,30.09,NNW,341,1.0,5.0,83,0.00,,,0.00,0,Wunderground v.1.15,2013-01-02 02:28:00,
2013-01-01 21:34:00,27.0,22.5,30.09,North,5,1.0,5.0,83,0.00,,,0.00,0,Wunderground v.1.15,2013-01-02 02:34:00,
2013-01-01 21:40:00,26.9,22.1,30.08,North,355,2.0,2.0,82,0.00,,,0.00,0,Wunderground v.1.15,2013-01-02 02:40:00,
2013-01-01 21:46:00,26.8,22.0,30.07,North,5,2.0,2.0,82,0.00,,,0.00,0,Wunderground v.1.15,2013-01-02 02:46:00,
2013-01-01 21:51:00,26.7,21.9,30.08,NNW,348,2.0,2.0,82,0.00,,,0.00,0,Wunderground v.1.15,2013-01-02 02:51:00,
2013-01-01 21:56:00,26.6,21.8,30.09,North,9,1.0,4.0,82,0.00,,,0.00,0,Wunderground v.1.15,2013-01-02 02:56:00,
2013-01-01 22:02:00,26.5,21.7,30.10,NE,40,1.0,4.0,82,0.00,,,0.00,0,Wunderground v.1.15,2013-01-02 03:02:00,
2013-01-01 22:07:00,26.5,21.7,30.09,North,355,3.0,6.0,82,0.00,,,0.00,0,Wunderground v.1.15,2013-01-02 03:07:00,
2013-01-01 22:13:00,26.4,21.7,30.10,North,5,4.0,6.0,82,0.00,,,0.00,0,Wunderground v.1.15,2013-01-02 03:13:00,
2013-01-01 22:19:00,26.3,21.6,30.10,North,355,3.0,6.0,82,0.00,,,0.00,0,Wunderground v.1.15,2013-01-02 03:19:00,
2013-01-01 22:25:00,26.2,21.5,30.10,NW,326,2.0,5.0,82,0.00,,,0.00,0,Wunderground v.1.15,2013-01-02 03:25:00,
2013-01-01 22:30:00,26.1,21.4,30.09,NNE,17,2.0,2.0,82,0.00,,,0.00,0,Wunderground v.1.15,2013-01-02 03:30:00,
2013-01-01 22:36:00,26.1,21.1,30.10,North,360,2.0,7.0,81,0.00,,,0.00,0,Wunderground v.1.15,2013-01-02 03:36:00,
2013-01-01 22:41:00,26.0,21.3,30.10,NNE,29,2.0,3.0,82,0.00,,,0.00,0,Wunderground v.1.15,2013-01-02 03:41:00,
2013-01-01 22:47:00,25.9,20.9,30.09,NNW,346,1.0,4.0,81,0.00,,,0.00,0,Wunderground v.1.15,2013-01-02 03:47:00,
2013-01-01 22:53:00,25.8,21.1,30.10,NNW,338,2.0,4.0,82,0.00,,,0.00,0,Wunderground v.1.15,2013-01-02 03:53:00,
2013-01-01 22:58:00,25.7,20.7,30.10,NNE,23,2.0,4.0,81,0.00,,,0.00,0,Wunderground v.1.15,2013-01-02 03:58:00,
2013-01-01 23:03:00,25.6,20.9,30.10,NNW,345,1.0,5.0,82,0.00,,,0.00,0,Wunderground v.1.15,2013-01-02 04:03:00,
2013-01-01 23:08:00,25.5,20.8,30.10,North,350,3.0,7.0,82,0.00,,,0.00,0,Wunderground v.1.15,2013-01-02 04:08:00,
2013-01-01 23:13:00,25.3,20.6,30.10,NNW,340,3.0,3.0,82,0.00,,,0.00,0,Wunderground v.1.15,2013-01-02 04:13:00,
2013-01-01 23:19:00,25.2,20.5,30.11,NNW,348,1.0,5.0,82,0.00,,,0.00,0,Wunderground v.1.15,2013-01-02 04:19:00,
2013-01-01 23:24:00,25.1,20.4,30.10,NNW,337,1.0,4.0,82,0.00,,,0.00,0,Wunderground v.1.15,2013-01-02 04:24:00,
2013-01-01 23:29:00,25.0,20.3,30.10,NNW,336,1.0,4.0,82,0.00,,,0.00,0,Wunderground v.1.15,2013-01-02 04:29:00,
2013-01-01 23:35:00,24.9,20.2,30.10,WNW,302,1.0,1.0,82,0.00,,,0.00,0,Wunderground v.1.15,2013-01-02 04:35:00,
2013-01-01 23:40:00,24.7,20.0,30.11,NW,317,0.0,0.0,82,0.00,,,0.00,0,Wunderground v.1.15,2013-01-02 04:40:00,
2013-01-01 23:45:00,24.7,20.0,30.11,NNW,342,1.0,2.0,82,0.00,,,0.00,0,Wunderground v.1.15,2013-01-02 04:45:00,
2013-01-01 23:51:00,24.6,19.9,30.10,NW,323,1.0,2.0,82,0.00,,,0.00,0,Wunderground v.1.15,2013-01-02 04:51:00,
2013-01-01 23:57:00,24.6,19.9,30.11,North,355,1.0,3.0,82,0.00,,,0.00,0,Wunderground v.1.15,2013-01-02 04:57:00,